Weather reports worldwide

Advertisment
Putbus, Germany (10093): temperature & dewpoint: 24.10.2020 11:00:00 - 30.10.2020 11:00:00 (CET)Putbus, Germany (10093): temperature 5cm & temperature -5cm: 24.10.2020 11:00:00 - 30.10.2020 11:00:00 (CET)Putbus, Germany (10093): temperature -20cm & temperature -100cm: 24.10.2020 11:00:00 - 30.10.2020 11:00:00 (CET)Putbus, Germany (10093): wind speed & gusts: 24.10.2020 11:00:00 - 30.10.2020 11:00:00 (CET)Putbus, Germany (10093): wind direction: 24.10.2020 11:00:00 - 30.10.2020 11:00:00 (CET)Putbus, Germany (10093): reduced air pressure: 24.10.2020 11:00:00 - 30.10.2020 11:00:00 (CET)Putbus, Germany (10093): visibility: 24.10.2020 11:00:00 - 30.10.2020 11:00:00 (CET)Putbus, Germany (10093): sunshine duration: 24.10.2020 11:00:00 - 30.10.2020 11:00:00 (CET)Putbus, Germany (10093): precipitation: 24.10.2020 11:00:00 - 30.10.2020 11:00:00 (CET)
Date & Time tt [°C] td [°C] tt 5cm [°C] tt -5cm [°C] tt -20cm [°C] tt -100cm [°C] ff [km/h] ff [kn] fx [km/h] fx [kn] dd ppp [hPa] vv [km] sd [min] rr [mm]
30.10.2020 11:00:00 8,5 7,9 8,6 8,8 8,7 12,0 9 5 21 11 S 1013,1 3,7 0 -
30.10.2020 10:00:00 8,5 7,8 8,6 8,3 8,6 12,0 9 5 19 11 SSE 1012,9 3,9 0 -
30.10.2020 09:00:00 8,2 7,4 8,1 7,9 8,6 12,0 8 4 22 12 SSE 1013,2 10 0 -
30.10.2020 08:00:00 8,0 7,4 7,8 7,4 8,6 12,0 10 5 18 10 S 1013,4 9 0 -
30.10.2020 07:00:00 7,6 6,7 7,2 7,1 8,6 12,0 8 5 16 8 S 1013,4 10 0 -
30.10.2020 06:00:00 7,2 6,3 6,7 6,9 8,7 12,0 8 4 18 10 SSW 1013,5 16 0 -
30.10.2020 05:00:00 6,7 5,8 6,2 6,8 8,8 12,0 10 5 16 8 SSW 1013,6 14 0 -
30.10.2020 04:00:00 6,7 5,8 5,9 6,8 8,9 12,0 8 5 21 11 SW 1013,6 12 0 -
30.10.2020 03:00:00 6,8 5,8 5,9 6,9 9,0 12,0 14 8 21 11 WSW 1013,9 14 0 -
30.10.2020 02:00:00 7,1 6,0 6,2 7,1 9,1 12,0 14 7 23 12 WSW 1014,1 16 0 -
30.10.2020 01:00:00 8,1 6,7 7,2 7,7 9,2 12,0 15 8 22 12 WSW 1014,0 20 0 -
30.10.2020 00:00:00 8,7 7,1 8,1 7,8 9,2 12,0 13 7 25 14 WSW 1013,7 26 0 -
29.10.2020 23:00:00 8,4 6,8 7,6 7,7 9,3 12,1 13 7 25 14 WSW 1013,6 31 0 -
29.10.2020 22:00:00 8,4 6,9 7,6 7,4 9,4 12,1 15 8 25 13 WSW 1013,4 36 0 -
29.10.2020 21:00:00 8,0 6,5 7,0 7,5 9,6 12,1 15 8 24 13 WSW 1013,1 35 0 -
29.10.2020 20:00:00 8,2 6,6 7,2 7,6 9,8 12,1 17 9 26 14 WSW 1012,4 38 0 -
29.10.2020 19:00:00 8,3 6,4 7,3 8,0 9,9 12,1 20 11 31 17 WSW 1011,7 41 0 -
29.10.2020 18:00:00 8,9 6,3 7,8 8,6 10,1 12,1 20 11 37 20 WSW 1011,3 45 0 -
29.10.2020 17:00:00 9,5 6,6 8,6 9,0 10,1 12,1 24 13 39 21 W 1010,4 44 6 -
29.10.2020 16:00:00 9,4 6,7 8,6 9,7 10,1 12,1 22 12 40 22 WSW 1009,6 46 0 -
29.10.2020 15:00:00 10,0 6,5 9,7 10,3 10,1 12,1 23 12 43 23 WSW 1009,1 57 0 -
29.10.2020 14:00:00 9,7 6,7 9,0 10,6 9,9 12,1 19 11 40 22 W 1008,4 24 10 -
29.10.2020 13:00:00 9,9 6,7 9,8 10,5 9,7 12,1 15 8 41 22 SW 1007,9 48 11 -
29.10.2020 12:00:00 10,2 6,1 10,7 10,2 9,6 12,1 26 14 40 22 WSW 1007,5 61 5 -
29.10.2020 11:00:00 9,5 6,7 9,5 9,9 9,4 12,1 23 12 41 22 WSW 1006,8 75 10 -
29.10.2020 10:00:00 9,3 7,5 9,6 9,0 9,4 12,1 16 8 32 18 SW 1005,9 64 2 -
29.10.2020 09:00:00 8,7 7,7 8,4 8,6 9,3 12,1 14 7 30 16 SW 1005,5 22 0 -
29.10.2020 08:00:00 9,1 8,0 8,7 8,5 9,3 12,1 11 6 23 12 SW 1004,8 14 0 -
29.10.2020 07:00:00 9,0 8,0 8,5 8,3 9,3 12,1 11 6 20 11 SSW 1004,6 30 0 -
29.10.2020 06:00:00 9,0 7,9 8,6 8,3 9,3 12,1 12 6 26 14 SSW 1004,9 10 0 -
29.10.2020 05:00:00 9,2 7,5 8,7 8,0 9,3 12,1 14 8 29 16 S 1005,0 43 0 -
29.10.2020 04:00:00 9,2 7,5 8,5 7,5 9,4 12,1 14 8 29 15 S 1005,3 63 0 -
29.10.2020 03:00:00 8,7 7,4 7,4 7,4 9,5 12,2 11 6 24 13 S 1005,9 47 0 -
29.10.2020 02:00:00 8,8 7,4 7,6 7,6 9,7 12,2 13 7 25 14 S 1006,4 55 0 -
29.10.2020 01:00:00 9,2 7,9 8,1 7,8 9,8 12,2 16 8 30 16 S 1006,7 47 0 -
29.10.2020 00:00:00 9,3 8,0 8,2 7,9 9,9 12,2 15 8 26 14 S 1007,2 42 0 -
28.10.2020 23:00:00 9,0 7,9 7,9 8,2 10,1 12,2 13 7 23 12 S 1007,5 42 0 -
28.10.2020 22:00:00 9,1 7,8 8,3 8,7 10,2 12,2 9 5 19 10 S 1007,9 44 0 -
28.10.2020 21:00:00 9,0 7,6 8,3 8,7 10,4 12,2 11 6 36 19 SSW 1008,1 49 0 -
28.10.2020 20:00:00 9,0 7,3 7,8 8,8 10,6 12,2 10 5 22 12 S 1008,0 65 0 -
28.10.2020 19:00:00 9,6 7,1 8,3 9,5 10,7 12,2 13 7 24 13 S 1008,0 64 0 -
28.10.2020 18:00:00 11,1 8,2 10,1 10,3 10,8 12,2 12 7 22 12 S 1007,9 48 0 -
28.10.2020 17:00:00 11,6 8,2 10,8 10,8 10,8 12,2 12 7 24 13 S 1007,6 49 1 -
28.10.2020 16:00:00 11,9 8,6 11,6 11,6 10,7 12,2 12 7 26 14 S 1007,6 53 2 -
28.10.2020 15:00:00 12,2 8,2 12,0 12,1 10,4 12,2 14 7 24 13 SSW 1007,1 66 32 -
28.10.2020 14:00:00 12,8 8,3 13,5 12,4 10,1 12,2 11 6 27 15 SSW 1006,8 60 41 -
28.10.2020 13:00:00 12,0 7,9 12,3 11,8 9,8 12,2 16 8 33 18 SSW 1006,8 48 34 -
28.10.2020 12:00:00 12,2 8,2 13,5 10,9 9,6 12,2 16 9 30 16 SW 1006,6 53 53 -
28.10.2020 11:00:00 10,4 7,8 10,8 9,8 9,4 12,2 13 7 27 15 SSW 1006,7 56 0 -
28.10.2020 10:00:00 9,6 7,7 9,7 9,1 9,3 12,2 16 8 32 17 SSW 1006,2 50 0 -
28.10.2020 09:00:00 8,9 7,5 8,7 8,6 9,3 12,3 16 9 32 17 SSW 1005,5 31 0 -
28.10.2020 08:00:00 8,5 7,6 8,3 8,2 9,2 12,3 15 8 36 19 SSW 1005,0 19 0 -
28.10.2020 07:00:00 8,5 6,6 8,2 8,0 9,3 12,3 18 10 37 20 SSW 1004,4 11 0 -
28.10.2020 06:00:00 8,5 5,9 8,2 7,9 9,3 12,3 22 12 42 23 SSW 1004,4 14 0 -
28.10.2020 05:00:00 8,9 5,6 8,4 7,8 9,3 12,3 19 11 44 24 S 1004,2 45 0 -
28.10.2020 04:00:00 8,9 5,8 8,3 7,6 9,4 12,3 18 10 35 19 S 1004,4 56 0 -
28.10.2020 03:00:00 8,8 5,7 7,7 7,5 9,5 12,3 18 10 33 18 S 1005,1 58 0 -
28.10.2020 02:00:00 8,9 5,7 7,8 7,4 9,6 12,3 18 10 36 19 S 1005,5 67 0 -
28.10.2020 01:00:00 8,6 5,8 7,5 7,5 9,8 12,3 17 9 29 16 SSW 1005,8 55 0 -
28.10.2020 00:00:00 8,8 6,1 7,3 7,9 9,9 12,3 14 7 28 15 SSW 1006,1 65 0 -
27.10.2020 23:00:00 9,1 6,3 8,3 8,0 10,1 12,3 14 7 26 14 SSW 1006,5 55 0 -
27.10.2020 22:00:00 8,8 6,3 7,8 8,0 10,2 12,3 13 7 23 13 S 1006,6 56 0 -
27.10.2020 21:00:00 8,9 6,7 7,4 8,4 10,4 12,3 13 7 24 13 S 1006,5 56 0 -
27.10.2020 20:00:00 8,9 7,2 7,4 9,0 10,5 12,3 10 5 25 13 S 1006,5 46 0 -
27.10.2020 19:00:00 9,2 7,5 8,6 9,5 10,6 12,3 11 6 26 14 S 1006,6 41 0 -
27.10.2020 18:00:00 10,4 7,6 10,0 9,7 10,7 12,3 13 7 22 12 S 1006,5 38 0 -
27.10.2020 17:00:00 10,1 7,4 8,9 10,0 10,8 12,3 11 6 22 12 S 1006,2 52 22 -
27.10.2020 16:00:00 10,8 7,3 9,9 11,0 10,7 12,3 9 5 27 14 SSW 1005,9 58 51 -
27.10.2020 15:00:00 11,3 7,0 11,8 11,7 10,5 12,3 15 8 29 16 SSW 1006,2 49 40 -
27.10.2020 14:00:00 11,2 7,3 11,5 11,7 10,3 12,3 14 8 30 16 SSW 1006,3 45 38 -
27.10.2020 13:00:00 10,7 7,2 11,1 11,2 10,0 12,3 16 8 26 14 SSW 1006,1 34 5 0,0
27.10.2020 12:00:00 10,1 7,2 10,7 10,7 9,8 12,3 14 8 27 14 SSW 1006,0 38 1 -
27.10.2020 11:00:00 9,4 7,0 9,9 9,6 9,7 12,3 13 7 27 14 SSW 1006,3 41 0 -
27.10.2020 10:00:00 8,6 6,6 8,8 8,7 9,7 12,3 14 8 24 13 SSW 1006,0 48 0 -
27.10.2020 09:00:00 8,0 6,5 7,5 8,1 9,7 12,3 12 7 25 14 SSW 1005,8 42 0 -
27.10.2020 08:00:00 7,8 6,4 7,1 7,6 9,8 12,3 12 6 24 13 SSW 1005,6 38 0 -
27.10.2020 07:00:00 7,8 6,5 6,8 7,6 10,0 12,3 12 7 24 13 SSW 1005,2 37 0 -
27.10.2020 06:00:00 8,0 6,6 7,0 7,8 10,1 12,3 14 7 23 12 SSW 1004,8 35 0 -
27.10.2020 05:00:00 8,3 7,2 7,2 8,0 10,3 12,3 11 6 19 11 S 1004,3 29 0 -
27.10.2020 04:00:00 8,3 7,2 7,4 8,2 10,5 12,3 11 6 19 10 S 1004,0 22 0 -
27.10.2020 03:00:00 8,2 7,2 7,3 8,4 10,7 12,3 11 6 18 10 SSW 1003,8 21 0 -
27.10.2020 02:00:00 8,3 7,2 7,2 8,7 10,8 12,3 9 5 23 12 SSW 1003,8 20 0 -
27.10.2020 01:00:00 8,8 7,5 7,6 9,1 11,0 12,3 11 6 22 12 SW 1003,9 23 0 -
27.10.2020 00:00:00 9,2 8,4 8,4 9,7 11,1 12,3 10 5 21 11 SW 1003,5 14 0 -
26.10.2020 23:00:00 9,8 9,2 9,3 10,2 11,2 12,3 9 5 17 9 SW 1003,3 6 0 -
26.10.2020 22:00:00 10,4 9,8 10,2 10,7 11,2 12,3 9 5 19 10 SW 1003,2 8 0 -
26.10.2020 21:00:00 10,7 10,1 10,5 10,8 11,2 12,3 9 5 16 8 S 1002,7 8 0 -
26.10.2020 20:00:00 10,8 10,4 10,7 10,9 11,3 12,3 5 3 14 8 SSW 1002,6 3,4 0 -
26.10.2020 19:00:00 10,9 10,4 10,8 10,8 11,3 12,3 6 3 11 6 S 1002,9 2,9 0 -
26.10.2020 18:00:00 10,7 10,2 10,5 10,9 11,3 12,3 5 3 9 5 S 1002,8 3,2 0 -
26.10.2020 17:00:00 10,8 10,2 10,5 11,0 11,3 12,3 5 3 12 7 SSW 1002,6 5 0 -
26.10.2020 16:00:00 10,9 10,2 10,7 11,2 11,3 12,3 7 4 14 8 S 1002,7 9 0 -
26.10.2020 15:00:00 10,9 10,1 10,6 11,5 11,2 12,3 8 4 13 7 S 1002,5 10 0 -
26.10.2020 14:00:00 11,2 10,3 11,1 11,5 11,2 12,3 6 3 16 9 S 1002,3 12 0 -
26.10.2020 13:00:00 10,7 9,9 10,5 11,2 11,1 12,3 7 4 14 8 S 1002,6 8 0 -
26.10.2020 12:00:00 10,8 9,9 10,7 11,3 11,0 12,3 8 4 16 9 S 1003,0 15 0 -
26.10.2020 11:00:00 11,1 9,6 11,1 11,3 10,9 12,3 8 4 16 8 S 1003,0 19 0 -
26.10.2020 10:00:00 10,9 9,7 11,1 10,5 10,8 12,3 8 4 16 9 S 1003,1 17 0 -
26.10.2020 09:00:00 10,6 9,5 10,3 10,1 10,9 12,3 9 5 18 10 S 1002,9 15 0 -
26.10.2020 08:00:00 10,1 9,1 9,8 9,6 11,0 12,3 9 5 16 9 S 1002,7 23 0 -
26.10.2020 07:00:00 10,0 8,8 9,4 9,5 11,1 12,3 8 4 19 10 SSW 1002,6 21 0 -
26.10.2020 06:00:00 10,1 9,0 9,0 9,5 11,2 12,3 11 6 18 10 S 1002,6 20 0 -
26.10.2020 05:00:00 10,3 9,0 9,2 10,0 11,3 12,3 8 4 17 9 S 1002,0 24 0 -
26.10.2020 04:00:00 10,8 9,2 9,7 10,3 11,4 12,3 9 5 16 9 S 1002,7 31 0 -
26.10.2020 03:00:00 11,4 9,7 10,5 10,7 11,5 12,3 9 5 16 9 S 1001,9 37 0 -
26.10.2020 02:00:00 11,8 9,6 11,3 11,0 11,5 12,3 10 5 21 11 SSW 1002,8 46 0 -
26.10.2020 01:00:00 12,0 9,6 11,6 11,0 11,6 12,3 10 5 20 11 SSW 1003,0 45 0 -
26.10.2020 00:00:00 12,0 9,5 11,5 11,0 11,6 12,3 10 6 19 11 S 1002,6 38 0 -
25.10.2020 23:00:00 12,2 9,6 11,7 11,1 11,7 12,3 10 6 19 10 S 1003,3 46 0 -
25.10.2020 22:00:00 12,4 9,5 11,5 11,1 11,7 12,3 10 5 24 13 S 1003,5 55 0 -
25.10.2020 21:00:00 12,6 9,4 12,0 11,3 11,8 12,3 12 7 28 15 S 1003,6 63 0 -
25.10.2020 20:00:00 13,0 9,4 12,4 11,4 11,9 12,3 13 7 26 14 S 1003,6 65 0 -
25.10.2020 19:00:00 13,2 9,7 12,5 11,6 11,9 12,3 13 7 30 16 S 1004,0 75 0 0,0
25.10.2020 18:00:00 13,1 10,2 12,4 11,7 12,0 12,3 11 6 26 14 S 1004,4 68 0 0,0
25.10.2020 17:00:00 13,4 9,9 12,8 12,1 12,0 12,3 13 7 29 16 S 1004,4 69 0 0,0
25.10.2020 16:00:00 13,5 10,1 13,1 12,7 12,0 12,3 16 9 30 16 S 1004,5 63 0 0,0
25.10.2020 15:00:00 13,7 10,0 13,4 13,1 11,8 12,3 17 9 33 18 S 1004,5 72 0 0,0
25.10.2020 14:00:00 13,6 10,0 13,8 13,2 11,7 12,3 16 9 34 18 S 1004,9 54 1 -
25.10.2020 13:00:00 13,5 10,0 13,9 12,9 11,5 12,3 13 7 29 16 S 1005,3 57 0 -
25.10.2020 12:00:00 13,2 9,6 13,6 12,9 11,3 12,3 16 9 31 17 S 1005,8 60 13 -
25.10.2020 11:00:00 12,6 9,2 13,1 12,2 11,1 12,3 19 11 34 18 S 1006,1 71 16 -
25.10.2020 10:00:00 12,4 8,9 14,3 11,1 11,0 12,3 18 10 30 16 S 1006,0 44 37 -
25.10.2020 09:00:00 11,7 8,7 12,5 10,5 11,1 12,3 17 9 32 18 S 1006,6 74 53 -
25.10.2020 08:00:00 11,0 8,8 10,2 10,3 11,1 12,3 11 6 28 15 S 1007,0 66 0 -
25.10.2020 07:00:00 11,7 9,2 11,4 10,7 11,1 12,3 14 8 29 16 S 1006,9 57 0 0,0
25.10.2020 06:00:00 11,8 9,5 11,5 10,7 11,1 12,3 15 8 26 14 S 1007,1 57 0 -
25.10.2020 05:00:00 12,0 9,6 11,6 10,7 11,1 12,3 15 8 27 14 S 1007,4 63 0 0,0
25.10.2020 04:00:00 12,1 9,7 11,6 10,7 11,1 12,3 12 6 28 15 S 1007,7 55 0 -
25.10.2020 03:00:00 11,9 9,9 11,5 10,6 11,1 12,3 10 6 19 11 S 1008,5 55 0 -
25.10.2020 02:00:00 11,7 9,9 11,2 10,5 11,1 12,3 10 5 19 11 S 1009,0 49 0 0,0
25.10.2020 01:00:00 - - - - - - - - - - - - - - -
25.10.2020 00:00:00 11,2 10,1 10,3 10,2 11,3 12,3 11 6 22 12 S 1009,5 27 0 -
24.10.2020 23:00:00 11,7 10,4 10,5 10,8 11,3 12,3 12 7 21 12 S 1009,9 32 0 0,0
24.10.2020 22:00:00 11,8 10,7 11,3 11,0 11,3 12,3 9 5 18 10 S 1010,2 23 0 -
24.10.2020 21:00:00 11,9 10,3 11,5 10,9 11,4 12,3 9 5 23 13 S 1010,5 28 0 -
24.10.2020 20:00:00 12,1 9,9 11,6 10,9 11,4 12,3 12 7 22 12 SSW 1010,7 47 0 0,0
24.10.2020 19:00:00 12,1 9,2 11,5 10,8 11,5 12,3 9 5 17 9 SSW 1010,8 45 0 -
24.10.2020 18:00:00 12,0 8,5 11,2 10,9 11,6 12,3 8 5 20 11 SSW 1010,8 60 0 -
24.10.2020 17:00:00 11,7 8,2 10,2 11,3 11,7 12,3 11 6 18 10 SW 1010,7 46 0 -
24.10.2020 16:00:00 12,3 9,3 11,4 12,2 11,6 12,3 9 5 21 11 WSW 1010,6 35 39 -
24.10.2020 15:00:00 13,1 10,1 12,8 12,3 11,5 12,3 8 5 29 15 WSW 1010,1 42 0 0,0
24.10.2020 14:00:00 13,0 10,1 12,8 12,4 11,4 12,3 16 8 32 17 SW 1010,0 27 5 0,0
24.10.2020 13:00:00 13,1 10,5 12,8 12,4 11,2 12,3 16 9 29 16 WSW 1010,0 21 0 -
24.10.2020 12:00:00 12,6 10,7 12,2 12,2 11,1 12,3 11 6 32 17 WSW 1010,0 14 0 0,0
24.10.2020 11:00:00 13,1 10,1 13,5 12,2 10,8 12,3 18 10 32 17 SW 1009,7 20 2 -

tt = temperature
td = dewpoint
tt 5cm = temperature 5cm
tt -5cm = temperature -5cm
tt -20cm = temperature -20cm
tt -100cm = temperature -100cm
ff = wind speed
fx = gusts
dd = wind direction
ppp = reduced air pressure
vv = visibility
sd = sunshine duration
rr = precipitation

Next stations